Time,TemperatureF,DewpointF,PressureIn,WindDirection,WindDirectionDegrees,WindSpeedMPH,WindSpeedGustMPH,Humidity,HourlyPrecipIn,Conditions,Clouds,dailyrainin,SoftwareType,DateUTC
2013-04-16 00:04:00,35.8,22.9,29.32,East,88,0.0,0.0,59,0.00,,FEW060,0.00,VWS V14.00,2013-04-16 07:04:00,
2013-04-16 00:10:00,35.6,22.7,29.32,East,88,0.0,0.0,59,0.00,,FEW060,0.00,VWS V14.00,2013-04-16 07:10:00,
2013-04-16 00:15:00,35.4,22.9,29.32,East,88,0.0,0.0,60,0.00,,FEW060,0.00,VWS V14.00,2013-04-16 07:15:00,
2013-04-16 00:21:00,35.2,22.8,29.32,East,88,0.0,0.0,60,0.00,,FEW060,0.00,VWS V14.00,2013-04-16 07:21:00,
2013-04-16 00:27:00,35.1,22.6,29.32,East,88,0.0,0.0,60,0.00,,FEW060,0.00,VWS V14.00,2013-04-16 07:27:00,
2013-04-16 00:32:00,34.9,22.4,29.32,East,88,0.0,0.0,60,0.00,,FEW060,0.00,VWS V14.00,2013-04-16 07:32:00,
2013-04-16 00:38:00,34.7,22.6,29.32,East,88,0.0,0.0,61,0.00,,FEW060,0.00,VWS V14.00,2013-04-16 07:38:00,
2013-04-16 00:43:00,34.5,22.5,29.32,East,88,0.0,0.0,61,0.00,,FEW060,0.00,VWS V14.00,2013-04-16 07:43:00,
2013-04-16 00:49:00,34.3,22.3,29.32,East,88,0.0,0.0,61,0.00,,FEW060,0.00,VWS V14.00,2013-04-16 07:49:00,
2013-04-16 00:55:00,34.3,22.3,29.32,East,88,0.0,0.0,61,0.00,,FEW060,0.00,VWS V14.00,2013-04-16 07:55:00,
2013-04-16 01:01:00,34.2,22.1,29.32,East,88,0.0,0.0,61,0.00,,CLR,0.00,VWS V14.00,2013-04-16 08:01:00,
2013-04-16 01:07:00,34.0,22.0,29.32,East,88,0.0,0.0,61,0.00,,CLR,0.00,VWS V14.00,2013-04-16 08:07:00,
2013-04-16 01:12:00,33.8,21.8,29.32,East,88,0.0,0.0,61,0.00,,CLR,0.00,VWS V14.00,2013-04-16 08:12:00,
2013-04-16 01:18:00,33.8,22.2,29.32,East,88,0.0,0.0,62,0.00,,CLR,0.00,VWS V14.00,2013-04-16 08:18:00,
2013-04-16 01:23:00,34.0,22.4,29.32,East,88,0.0,0.0,62,0.00,,CLR,0.00,VWS V14.00,2013-04-16 08:23:00,
2013-04-16 01:29:00,34.0,22.4,29.32,East,88,0.0,0.0,62,0.00,,CLR,0.00,VWS V14.00,2013-04-16 08:29:00,
2013-04-16 01:34:00,33.8,22.2,29.32,East,88,0.0,0.0,62,0.00,,CLR,0.00,VWS V14.00,2013-04-16 08:34:00,
2013-04-16 01:40:00,33.8,22.2,29.32,East,88,0.0,0.0,62,0.00,,CLR,0.00,VWS V14.00,2013-04-16 08:40:00,
2013-04-16 01:46:00,33.8,22.2,29.32,East,88,0.0,0.0,62,0.00,,CLR,0.00,VWS V14.00,2013-04-16 08:46:00,
2013-04-16 01:51:00,33.8,22.5,29.32,East,88,0.0,0.0,63,0.00,,CLR,0.00,VWS V14.00,2013-04-16 08:51:00,
2013-04-16 01:56:00,33.8,22.5,29.32,East,88,0.0,0.0,63,0.00,,CLR,0.00,VWS V14.00,2013-04-16 08:56:00,
2013-04-16 02:01:00,33.8,22.5,29.32,East,88,0.0,0.0,63,0.00,,CLR,0.00,VWS V14.00,2013-04-16 09:01:00,
2013-04-16 02:07:00,34.0,22.7,29.32,East,88,0.0,0.0,63,0.00,,CLR,0.00,VWS V14.00,2013-04-16 09:07:00,
2013-04-16 02:12:00,34.2,22.9,29.32,East,88,0.0,0.0,63,0.00,,CLR,0.00,VWS V14.00,2013-04-16 09:12:00,
2013-04-16 02:17:00,34.2,23.3,29.32,East,88,0.0,0.0,64,0.00,,CLR,0.00,VWS V14.00,2013-04-16 09:17:00,
2013-04-16 02:22:00,34.3,23.4,29.32,East,88,0.0,0.0,64,0.00,,CLR,0.00,VWS V14.00,2013-04-16 09:22:00,
2013-04-16 02:28:00,34.5,23.6,29.32,East,88,0.0,0.0,64,0.00,,CLR,0.00,VWS V14.00,2013-04-16 09:28:00,
2013-04-16 02:33:00,34.5,23.6,29.32,East,88,0.0,0.0,64,0.00,,CLR,0.00,VWS V14.00,2013-04-16 09:33:00,
2013-04-16 02:39:00,34.5,23.6,29.32,East,88,0.0,0.0,64,0.00,,CLR,0.00,VWS V14.00,2013-04-16 09:39:00,
2013-04-16 02:45:00,34.5,23.6,29.32,East,88,0.0,0.0,64,0.00,,CLR,0.00,VWS V14.00,2013-04-16 09:45:00,
2013-04-16 02:50:00,34.3,23.4,29.32,East,88,0.0,0.0,64,0.00,,CLR,0.00,VWS V14.00,2013-04-16 09:50:00,
2013-04-16 02:56:00,34.2,23.3,29.32,East,88,0.0,0.0,64,0.00,,CLR,0.00,VWS V14.00,2013-04-16 09:56:00,
2013-04-16 03:01:00,34.0,23.1,29.32,East,88,0.0,0.0,64,0.00,,SCT032,0.00,VWS V14.00,2013-04-16 10:01:00,
2013-04-16 03:07:00,34.0,23.1,29.32,East,88,0.0,0.0,64,0.00,,SCT032,0.00,VWS V14.00,2013-04-16 10:07:00,
2013-04-16 03:13:00,33.8,22.9,29.32,East,88,0.0,0.0,64,0.00,,SCT032,0.00,VWS V14.00,2013-04-16 10:13:00,
2013-04-16 03:19:00,33.6,23.1,29.32,East,88,0.0,0.0,65,0.00,,SCT032,0.00,VWS V14.00,2013-04-16 10:19:00,
2013-04-16 03:25:00,33.4,23.0,29.32,East,88,0.0,0.0,65,0.00,,SCT032,0.00,VWS V14.00,2013-04-16 10:25:00,
2013-04-16 03:31:00,33.4,23.0,29.32,East,88,0.0,0.0,65,0.00,,SCT032,0.00,VWS V14.00,2013-04-16 10:31:00,
2013-04-16 03:36:00,33.4,23.0,29.32,East,88,0.0,0.0,65,0.00,,SCT032,0.00,VWS V14.00,2013-04-16 10:36:00,
2013-04-16 03:42:00,33.3,22.8,29.32,East,88,0.0,0.0,65,0.00,,SCT032,0.00,VWS V14.00,2013-04-16 10:42:00,
2013-04-16 03:47:00,33.3,22.8,29.32,East,88,0.0,0.0,65,0.00,,SCT032,0.00,VWS V14.00,2013-04-16 10:47:00,
2013-04-16 03:53:00,33.3,22.8,29.32,East,88,0.0,0.0,65,0.00,,SCT032,0.00,VWS V14.00,2013-04-16 10:53:00,
2013-04-16 03:59:00,33.3,22.8,29.32,East,88,0.0,0.0,65,0.00,,SCT032,0.00,VWS V14.00,2013-04-16 10:59:00,
2013-04-16 04:04:00,33.3,23.1,29.32,East,88,0.0,0.0,66,0.00,,OVC032,0.00,VWS V14.00,2013-04-16 11:04:00,
2013-04-16 04:10:00,33.1,23.0,29.32,East,88,0.0,0.0,66,0.00,,OVC032,0.00,VWS V14.00,2013-04-16 11:10:00,
2013-04-16 04:16:00,33.1,23.0,29.32,East,88,0.0,0.0,66,0.00,,OVC032,0.00,VWS V14.00,2013-04-16 11:16:00,
2013-04-16 04:22:00,32.9,22.8,29.32,East,88,0.0,0.0,66,0.00,,OVC032,0.00,VWS V14.00,2013-04-16 11:22:00,
2013-04-16 04:28:00,32.7,22.6,29.32,East,88,0.0,0.0,66,0.00,,OVC032,0.00,VWS V14.00,2013-04-16 11:28:00,
2013-04-16 04:34:00,32.9,22.8,29.32,East,88,0.0,0.0,66,0.00,,OVC032,0.00,VWS V14.00,2013-04-16 11:34:00,
2013-04-16 04:39:00,33.1,23.3,29.32,East,88,0.0,0.0,67,0.00,,OVC032,0.00,VWS V14.00,2013-04-16 11:39:00,
2013-04-16 04:45:00,33.4,23.7,29.32,East,88,0.0,0.0,67,0.00,,OVC032,0.00,VWS V14.00,2013-04-16 11:45:00,
2013-04-16 04:51:00,33.4,23.7,29.32,East,88,0.0,0.0,67,0.00,,OVC032,0.00,VWS V14.00,2013-04-16 11:51:00,
2013-04-16 04:56:00,33.3,23.5,29.32,East,88,0.0,0.0,67,0.00,,OVC032,0.00,VWS V14.00,2013-04-16 11:56:00,
2013-04-16 05:01:00,33.3,23.5,29.32,East,88,0.0,0.0,67,0.00,,OVC030,0.00,VWS V14.00,2013-04-16 12:01:00,
2013-04-16 05:07:00,33.3,23.5,29.32,East,88,0.0,0.0,67,0.00,,OVC030,0.00,VWS V14.00,2013-04-16 12:07:00,
2013-04-16 05:13:00,33.3,23.5,29.32,East,88,0.0,0.0,67,0.00,,OVC030,0.00,VWS V14.00,2013-04-16 12:13:00,
2013-04-16 05:18:00,33.1,23.3,29.32,East,88,0.0,0.0,67,0.00,,OVC030,0.00,VWS V14.00,2013-04-16 12:18:00,
2013-04-16 05:24:00,33.1,23.3,29.32,East,88,0.0,0.0,67,0.00,,OVC030,0.00,VWS V14.00,2013-04-16 12:24:00,
2013-04-16 05:29:00,32.9,23.2,29.32,East,88,0.0,0.0,67,0.00,,OVC030,0.00,VWS V14.00,2013-04-16 12:29:00,
2013-04-16 05:34:00,32.9,23.2,29.32,East,88,0.0,0.0,67,0.00,,OVC030,0.00,VWS V14.00,2013-04-16 12:34:00,
2013-04-16 05:40:00,32.7,23.0,29.32,East,88,0.0,0.0,67,0.00,,OVC030,0.00,VWS V14.00,2013-04-16 12:40:00,
2013-04-16 05:45:00,32.7,23.0,29.32,East,88,0.0,0.0,67,0.00,,OVC030,0.00,VWS V14.00,2013-04-16 12:45:00,
2013-04-16 05:51:00,32.7,23.0,29.32,East,88,0.0,0.0,67,0.00,,OVC030,0.00,VWS V14.00,2013-04-16 12:51:00,
2013-04-16 05:56:00,32.5,22.8,29.32,East,88,0.0,0.0,67,0.00,,OVC030,0.00,VWS V14.00,2013-04-16 12:56:00,
2013-04-16 06:02:00,32.5,22.8,29.32,East,88,0.0,0.0,67,0.00,,FEW030,0.00,VWS V14.00,2013-04-16 13:02:00,
2013-04-16 06:07:00,32.2,22.5,29.32,East,88,0.0,0.0,67,0.00,,FEW030,0.00,VWS V14.00,2013-04-16 13:07:00,
2013-04-16 06:13:00,32.2,22.5,29.32,East,88,0.0,0.0,67,0.00,,FEW030,0.00,VWS V14.00,2013-04-16 13:13:00,
2013-04-16 06:19:00,32.2,22.5,29.32,East,88,0.0,0.0,67,0.00,,FEW030,0.00,VWS V14.00,2013-04-16 13:19:00,
2013-04-16 06:24:00,32.2,22.5,29.32,East,88,0.0,0.0,67,0.00,,FEW030,0.00,VWS V14.00,2013-04-16 13:24:00,
2013-04-16 06:30:00,31.8,22.5,29.32,East,88,0.0,0.0,68,0.00,,FEW030,0.00,VWS V14.00,2013-04-16 13:30:00,
2013-04-16 06:36:00,31.8,22.5,29.32,East,88,0.0,0.0,68,0.00,,FEW030,0.00,VWS V14.00,2013-04-16 13:36:00,
2013-04-16 06:41:00,32.0,22.6,29.32,East,88,0.0,0.0,68,0.00,,FEW030,0.00,VWS V14.00,2013-04-16 13:41:00,
2013-04-16 06:47:00,32.2,22.8,29.32,East,88,0.0,0.0,68,0.00,,FEW030,0.00,VWS V14.00,2013-04-16 13:47:00,
2013-04-16 06:52:00,32.4,23.0,29.32,East,88,0.0,0.0,68,0.00,,FEW030,0.00,VWS V14.00,2013-04-16 13:52:00,
2013-04-16 06:58:00,32.7,23.7,29.32,East,88,0.0,0.0,69,0.00,,FEW030,0.00,VWS V14.00,2013-04-16 13:58:00,
2013-04-16 07:03:00,33.1,24.0,29.32,East,88,0.0,0.0,69,0.00,,BKN024,0.00,VWS V14.00,2013-04-16 14:03:00,
2013-04-16 07:09:00,33.3,24.2,29.32,East,88,0.0,0.0,69,0.00,,BKN024,0.00,VWS V14.00,2013-04-16 14:09:00,
2013-04-16 07:15:00,33.8,24.7,29.32,East,88,0.0,0.0,69,0.00,,BKN024,0.00,VWS V14.00,2013-04-16 14:15:00,
2013-04-16 07:20:00,34.3,25.2,29.32,East,88,0.0,0.0,69,0.00,,BKN024,0.00,VWS V14.00,2013-04-16 14:20:00,
2013-04-16 07:26:00,35.1,26.3,29.32,East,88,0.0,0.0,70,0.00,,BKN024,0.00,VWS V14.00,2013-04-16 14:26:00,
2013-04-16 07:32:00,35.4,26.6,29.32,East,88,0.0,0.0,70,0.00,,BKN024,0.00,VWS V14.00,2013-04-16 14:32:00,
2013-04-16 07:38:00,35.8,26.6,29.32,East,88,0.0,0.0,69,0.00,,BKN024,0.00,VWS V14.00,2013-04-16 14:38:00,
2013-04-16 07:44:00,36.1,27.3,29.32,East,88,0.0,0.0,70,0.00,,BKN024,0.00,VWS V14.00,2013-04-16 14:44:00,
2013-04-16 07:50:00,36.7,27.8,29.32,East,88,0.0,0.0,70,0.00,,BKN024,0.00,VWS V14.00,2013-04-16 14:50:00,
2013-04-16 07:55:00,36.9,28.0,29.32,East,88,0.0,0.0,70,0.00,,BKN024,0.00,VWS V14.00,2013-04-16 14:55:00,
2013-04-16 08:01:00,37.2,28.4,29.32,East,88,0.0,0.0,70,0.00,,OVC024,0.00,VWS V14.00,2013-04-16 15:01:00,
2013-04-16 08:06:00,37.6,28.7,29.32,East,88,0.0,0.0,70,0.00,,OVC024,0.00,VWS V14.00,2013-04-16 15:06:00,
2013-04-16 08:12:00,37.9,29.0,29.32,East,88,0.0,0.0,70,0.00,,OVC024,0.00,VWS V14.00,2013-04-16 15:12:00,
2013-04-16 08:18:00,38.1,29.2,29.32,East,88,0.0,0.0,70,0.00,,OVC024,0.00,VWS V14.00,2013-04-16 15:18:00,
2013-04-16 08:23:00,38.5,29.6,29.32,East,88,0.0,0.0,70,0.00,,OVC024,0.00,VWS V14.00,2013-04-16 15:23:00,
2013-04-16 08:29:00,38.8,29.9,29.32,East,88,0.0,0.0,70,0.00,,OVC024,0.00,VWS V14.00,2013-04-16 15:29:00,
2013-04-16 08:34:00,39.0,30.1,29.32,East,88,0.0,0.0,70,0.00,,OVC024,0.00,VWS V14.00,2013-04-16 15:34:00,
2013-04-16 08:40:00,39.2,30.2,29.32,East,88,0.0,0.0,70,0.00,,OVC024,0.00,VWS V14.00,2013-04-16 15:40:00,
2013-04-16 08:46:00,39.4,30.4,29.32,East,88,0.0,0.0,70,0.00,,OVC024,0.00,VWS V14.00,2013-04-16 15:46:00,
2013-04-16 08:51:00,39.7,30.8,29.32,East,88,0.0,0.0,70,0.00,,OVC024,0.00,VWS V14.00,2013-04-16 15:51:00,
2013-04-16 08:56:00,39.9,30.9,29.32,East,88,0.0,0.0,70,0.00,,OVC024,0.00,VWS V14.00,2013-04-16 15:56:00,
2013-04-16 09:02:00,40.5,31.5,29.32,East,88,0.0,0.0,70,0.00,,OVC024,0.00,VWS V14.00,2013-04-16 16:02:00,
2013-04-16 09:08:00,40.6,31.6,29.32,East,88,0.0,0.0,70,0.00,,OVC024,0.00,VWS V14.00,2013-04-16 16:08:00,
2013-04-16 09:13:00,41.0,32.0,29.32,East,88,0.0,0.0,70,0.00,,OVC024,0.00,VWS V14.00,2013-04-16 16:13:00,
2013-04-16 09:19:00,41.2,32.2,29.32,East,88,0.0,3.6,70,0.00,,OVC024,0.00,VWS V14.00,2013-04-16 16:19:00,
2013-04-16 09:24:00,41.4,32.3,29.32,East,88,0.0,2.7,70,0.00,,OVC024,0.00,VWS V14.00,2013-04-16 16:24:00,
2013-04-16 09:29:00,41.5,32.5,29.32,East,88,0.0,0.0,70,0.00,,OVC024,0.00,VWS V14.00,2013-04-16 16:29:00,
2013-04-16 09:35:00,41.9,33.2,29.32,East,88,0.0,0.0,71,0.00,,OVC024,0.00,VWS V14.00,2013-04-16 16:35:00,
2013-04-16 09:40:00,42.1,33.4,29.32,East,88,0.0,0.0,71,0.00,,OVC024,0.00,VWS V14.00,2013-04-16 16:40:00,
2013-04-16 09:46:00,42.3,33.5,29.32,East,88,0.0,0.0,71,0.00,,OVC024,0.00,VWS V14.00,2013-04-16 16:46:00,
2013-04-16 09:51:00,42.3,33.5,29.32,East,88,0.0,0.0,71,0.00,,OVC024,0.00,VWS V14.00,2013-04-16 16:51:00,
2013-04-16 09:57:00,42.4,33.7,29.32,East,88,0.0,0.0,71,0.00,,OVC024,0.00,VWS V14.00,2013-04-16 16:57:00,
2013-04-16 10:03:00,42.8,34.1,29.32,East,88,0.0,0.0,71,0.00,,OVC022,0.00,VWS V14.00,2013-04-16 17:03:00,
2013-04-16 10:08:00,43.2,34.4,29.32,East,88,0.0,0.0,71,0.00,,OVC022,0.00,VWS V14.00,2013-04-16 17:08:00,
2013-04-16 10:14:00,43.3,34.6,29.32,East,88,0.0,0.0,71,0.00,,OVC022,0.00,VWS V14.00,2013-04-16 17:14:00,
2013-04-16 10:19:00,43.5,34.8,29.32,East,88,0.0,0.0,71,0.00,,OVC022,0.00,VWS V14.00,2013-04-16 17:19:00,
2013-04-16 10:25:00,44.1,34.9,29.32,East,88,0.0,0.0,70,0.00,,OVC022,0.00,VWS V14.00,2013-04-16 17:25:00,
2013-04-16 10:31:00,44.6,35.4,29.32,East,88,0.0,0.0,70,0.00,,OVC022,0.00,VWS V14.00,2013-04-16 17:31:00,
2013-04-16 10:36:00,45.0,35.8,29.32,East,88,0.0,0.0,70,0.00,,OVC022,0.00,VWS V14.00,2013-04-16 17:36:00,
2013-04-16 10:42:00,45.5,35.9,29.32,NNW,329,2.7,5.8,69,0.00,,OVC022,0.00,VWS V14.00,2013-04-16 17:42:00,
2013-04-16 10:47:00,46.0,36.5,29.32,SSW,204,3.1,3.1,69,0.00,,OVC022,0.00,VWS V14.00,2013-04-16 17:47:00,
2013-04-16 10:53:00,46.6,36.2,29.32,NNW,327,3.6,3.6,67,0.00,,OVC022,0.00,VWS V14.00,2013-04-16 17:53:00,
2013-04-16 10:58:00,46.4,35.7,29.32,SW,217,2.2,2.2,66,0.00,,OVC022,0.00,VWS V14.00,2013-04-16 17:58:00,
2013-04-16 11:03:00,46.2,35.1,29.32,SSW,211,0.0,0.0,65,0.00,,OVC022,0.00,VWS V14.00,2013-04-16 18:03:00,
2013-04-16 11:08:00,46.2,34.3,29.32,NW,317,0.0,3.1,63,0.00,,OVC022,0.00,VWS V14.00,2013-04-16 18:08:00,
2013-04-16 11:14:00,46.9,34.2,29.32,SW,227,0.0,0.0,61,0.00,,OVC022,0.00,VWS V14.00,2013-04-16 18:14:00,
2013-04-16 11:20:00,48.2,34.6,29.32,WNW,296,3.1,3.1,59,0.00,,OVC022,0.00,VWS V14.00,2013-04-16 18:20:00,
2013-04-16 11:25:00,49.5,35.3,29.32,SSW,197,2.7,2.7,58,0.00,,OVC022,0.00,VWS V14.00,2013-04-16 18:25:00,
2013-04-16 11:31:00,50.5,34.5,29.32,NW,308,0.0,2.7,54,0.00,,OVC022,0.00,VWS V14.00,2013-04-16 18:31:00,
2013-04-16 11:36:00,50.7,33.3,29.32,NW,309,0.0,0.0,51,0.00,,OVC022,0.00,VWS V14.00,2013-04-16 18:36:00,
2013-04-16 11:42:00,50.7,31.2,29.32,WNW,299,3.6,3.6,47,0.00,,OVC022,0.00,VWS V14.00,2013-04-16 18:42:00,
2013-04-16 11:48:00,51.4,31.4,29.32,ENE,60,4.9,4.9,46,0.00,,OVC022,0.00,VWS V14.00,2013-04-16 18:48:00,
2013-04-16 11:53:00,52.2,30.4,29.32,SW,231,0.0,2.7,43,0.00,,OVC022,0.00,VWS V14.00,2013-04-16 18:53:00,
2013-04-16 11:59:00,52.7,29.1,29.32,SSE,150,0.0,2.7,40,0.00,,OVC022,0.00,VWS V14.00,2013-04-16 18:59:00,
2013-04-16 12:04:00,53.4,29.1,29.32,NNW,329,3.1,4.0,39,0.00,,CLR,0.00,VWS V14.00,2013-04-16 19:04:00,
2013-04-16 12:09:00,54.0,28.3,29.32,North,9,0.0,3.1,37,0.00,,CLR,0.00,VWS V14.00,2013-04-16 19:09:00,
2013-04-16 12:14:00,54.5,28.1,29.32,West,280,2.2,4.0,36,0.00,,CLR,0.00,VWS V14.00,2013-04-16 19:14:00,
2013-04-16 12:19:00,54.5,27.4,29.32,SW,219,2.2,2.7,35,0.00,,CLR,0.00,VWS V14.00,2013-04-16 19:19:00,
2013-04-16 12:24:00,53.6,25.2,29.32,NW,325,2.7,2.7,33,0.00,,CLR,0.00,VWS V14.00,2013-04-16 19:24:00,
2013-04-16 12:30:00,52.2,24.7,29.32,NW,312,2.7,4.0,34,0.00,,CLR,0.00,VWS V14.00,2013-04-16 19:30:00,
2013-04-16 12:35:00,51.3,24.6,29.32,South,190,2.2,3.6,35,0.00,,CLR,0.00,VWS V14.00,2013-04-16 19:35:00,
2013-04-16 12:41:00,50.4,24.4,29.32,West,264,2.2,2.7,36,0.00,,CLR,0.00,VWS V14.00,2013-04-16 19:41:00,
2013-04-16 12:46:00,49.8,24.6,29.32,NW,307,3.6,3.6,37,0.00,,CLR,0.00,VWS V14.00,2013-04-16 19:46:00,
2013-04-16 12:52:00,49.6,24.5,29.32,NNW,344,4.0,4.0,37,0.00,,CLR,0.00,VWS V14.00,2013-04-16 19:52:00,
2013-04-16 12:58:00,49.8,24.6,29.32,NW,309,3.1,3.6,37,0.00,,CLR,0.00,VWS V14.00,2013-04-16 19:58:00,
2013-04-16 13:03:00,51.1,25.7,29.32,WSW,247,3.6,4.9,37,0.00,,CLR,0.00,VWS V14.00,2013-04-16 20:03:00,
2013-04-16 13:08:00,51.8,25.7,29.32,NNW,339,2.7,4.0,36,0.00,,CLR,0.00,VWS V14.00,2013-04-16 20:08:00,
2013-04-16 13:13:00,52.3,26.2,29.32,NNW,339,0.0,0.0,36,0.00,,CLR,0.00,VWS V14.00,2013-04-16 20:13:00,
2013-04-16 13:19:00,53.2,27.0,29.32,South,179,2.2,2.7,36,0.00,,CLR,0.00,VWS V14.00,2013-04-16 20:19:00,
2013-04-16 13:24:00,53.1,25.5,29.32,NW,317,3.1,3.1,34,0.00,,CLR,0.00,VWS V14.00,2013-04-16 20:24:00,
2013-04-16 13:30:00,53.1,25.5,29.32,West,269,0.0,3.1,34,0.00,,CLR,0.00,VWS V14.00,2013-04-16 20:30:00,
2013-04-16 13:35:00,53.6,25.9,29.32,SSW,193,0.0,0.0,34,0.00,,CLR,0.00,VWS V14.00,2013-04-16 20:35:00,
2013-04-16 13:41:00,55.6,26.2,29.32,NW,313,0.0,3.1,32,0.00,,CLR,0.00,VWS V14.00,2013-04-16 20:41:00,
2013-04-16 13:47:00,55.9,25.0,29.32,SW,218,0.0,2.7,30,0.00,,CLR,0.00,VWS V14.00,2013-04-16 20:47:00,
2013-04-16 13:52:00,55.6,23.0,29.32,SW,224,0.0,0.0,28,0.00,,CLR,0.00,VWS V14.00,2013-04-16 20:52:00,
2013-04-16 13:58:00,54.7,22.2,29.32,North,353,0.0,2.7,28,0.00,,CLR,0.00,VWS V14.00,2013-04-16 20:58:00,
2013-04-16 14:03:00,54.0,21.6,29.32,NNE,20,0.0,0.0,28,0.00,,CLR,0.00,VWS V14.00,2013-04-16 21:03:00,
2013-04-16 14:08:00,53.4,22.0,29.32,NE,41,0.0,0.0,29,0.00,,CLR,0.00,VWS V14.00,2013-04-16 21:08:00,
2013-04-16 14:14:00,53.2,21.8,29.32,NNE,25,4.9,4.9,29,0.00,,CLR,0.00,VWS V14.00,2013-04-16 21:14:00,
2013-04-16 14:20:00,53.1,21.7,29.32,NNE,29,0.0,3.1,29,0.00,,CLR,0.00,VWS V14.00,2013-04-16 21:20:00,
2013-04-16 14:26:00,52.9,21.5,29.32,NW,320,0.0,0.0,29,0.00,,CLR,0.00,VWS V14.00,2013-04-16 21:26:00,
2013-04-16 14:31:00,52.5,20.4,29.32,NW,321,0.0,0.0,28,0.00,,CLR,0.00,VWS V14.00,2013-04-16 21:31:00,
2013-04-16 14:36:00,52.5,20.4,29.32,NNW,333,0.0,0.0,28,0.00,,CLR,0.00,VWS V14.00,2013-04-16 21:36:00,
2013-04-16 14:42:00,52.9,21.5,29.32,NE,51,2.7,3.1,29,0.00,,CLR,0.00,VWS V14.00,2013-04-16 21:42:00,
2013-04-16 14:48:00,53.1,20.8,29.32,NNW,328,2.7,3.1,28,0.00,,CLR,0.00,VWS V14.00,2013-04-16 21:48:00,
2013-04-16 14:54:00,52.9,20.7,29.32,North,2,0.0,0.0,28,0.00,,CLR,0.00,VWS V14.00,2013-04-16 21:54:00,
2013-04-16 14:59:00,52.7,21.4,29.32,North,2,0.0,0.0,29,0.00,,CLR,0.00,VWS V14.00,2013-04-16 21:59:00,
2013-04-16 15:04:00,52.5,21.2,29.32,NNE,16,0.0,0.0,29,0.00,,OVC095,0.00,VWS V14.00,2013-04-16 22:04:00,
2013-04-16 15:09:00,52.2,20.9,29.32,NE,53,2.7,2.7,29,0.00,,OVC095,0.00,VWS V14.00,2013-04-16 22:09:00,
2013-04-16 15:15:00,52.2,20.9,29.32,NE,56,2.7,4.0,29,0.00,,OVC095,0.00,VWS V14.00,2013-04-16 22:15:00,
2013-04-16 15:20:00,52.2,20.1,29.32,North,357,3.1,4.0,28,0.00,,OVC095,0.00,VWS V14.00,2013-04-16 22:20:00,
2013-04-16 15:25:00,52.7,19.7,29.32,NNW,327,2.7,8.7,27,0.00,,OVC095,0.00,VWS V14.00,2013-04-16 22:25:00,
2013-04-16 15:31:00,53.1,20.0,29.32,NNW,340,2.7,3.6,27,0.00,,OVC095,0.00,VWS V14.00,2013-04-16 22:31:00,
2013-04-16 15:37:00,53.1,20.0,29.32,NW,319,3.6,3.6,27,0.00,,OVC095,0.00,VWS V14.00,2013-04-16 22:37:00,
2013-04-16 15:42:00,52.9,19.8,29.32,NW,312,3.6,3.6,27,0.00,,OVC095,0.00,VWS V14.00,2013-04-16 22:42:00,
2013-04-16 15:48:00,52.5,19.5,29.32,NW,312,6.3,6.3,27,0.00,,OVC095,0.00,VWS V14.00,2013-04-16 22:48:00,
2013-04-16 15:53:00,51.6,18.8,29.32,West,260,3.6,4.5,27,0.00,,OVC095,0.00,VWS V14.00,2013-04-16 22:53:00,
2013-04-16 15:58:00,50.9,18.1,29.32,WNW,303,4.0,5.4,27,0.00,,OVC095,0.00,VWS V14.00,2013-04-16 22:58:00,
2013-04-16 16:04:00,50.2,17.5,29.32,South,170,2.7,3.1,27,0.00,,OVC060,0.00,VWS V14.00,2013-04-16 23:04:00,
2013-04-16 16:09:00,49.8,18.9,29.32,SW,236,3.1,4.9,29,0.00,,OVC060,0.00,VWS V14.00,2013-04-16 23:09:00,
2013-04-16 16:14:00,49.5,18.5,29.32,NW,320,0.0,0.0,29,0.00,,OVC060,0.00,VWS V14.00,2013-04-16 23:14:00,
2013-04-16 16:19:00,49.3,19.2,29.32,NNW,327,0.0,0.0,30,0.00,,OVC060,0.00,VWS V14.00,2013-04-16 23:19:00,
2013-04-16 16:25:00,49.5,20.1,29.32,NNW,332,0.0,3.1,31,0.00,,OVC060,0.00,VWS V14.00,2013-04-16 23:25:00,
2013-04-16 16:30:00,49.5,20.1,29.32,WNW,288,2.7,2.7,31,0.00,,OVC060,0.00,VWS V14.00,2013-04-16 23:30:00,
2013-04-16 16:35:00,49.3,19.9,29.32,WNW,285,2.2,2.2,31,0.00,,OVC060,0.00,VWS V14.00,2013-04-16 23:35:00,
2013-04-16 16:41:00,49.1,19.8,29.32,NW,314,3.6,3.6,31,0.00,,OVC060,0.00,VWS V14.00,2013-04-16 23:41:00,
2013-04-16 16:47:00,49.6,21.7,29.32,SW,217,2.2,2.7,33,0.00,,OVC060,0.00,VWS V14.00,2013-04-16 23:47:00,
2013-04-16 16:53:00,50.4,20.9,29.32,NW,318,3.1,4.0,31,0.00,,OVC060,0.00,VWS V14.00,2013-04-16 23:53:00,
2013-04-16 16:58:00,51.1,20.0,29.32,SW,214,3.6,3.6,29,0.00,,OVC060,0.00,VWS V14.00,2013-04-16 23:58:00,
2013-04-16 17:03:00,51.8,19.8,29.32,WSW,242,2.7,2.7,28,0.00,,SCT100,0.00,VWS V14.00,2013-04-17 00:03:00,
2013-04-16 17:09:00,52.5,20.4,29.32,North,0,4.0,4.0,28,0.00,,SCT100,0.00,VWS V14.00,2013-04-17 00:09:00,
2013-04-16 17:14:00,53.1,20.8,29.32,NNW,337,0.0,2.7,28,0.00,,SCT100,0.00,VWS V14.00,2013-04-17 00:14:00,
2013-04-16 17:19:00,53.2,20.1,29.32,NNW,344,4.0,4.0,27,0.00,,SCT100,0.00,VWS V14.00,2013-04-17 00:19:00,
2013-04-16 17:24:00,53.8,19.7,29.32,NW,315,3.6,3.6,26,0.00,,SCT100,0.00,VWS V14.00,2013-04-17 00:24:00,
2013-04-16 17:30:00,54.1,20.0,29.32,SW,224,2.7,6.3,26,0.00,,SCT100,0.00,VWS V14.00,2013-04-17 00:30:00,
2013-04-16 17:36:00,54.1,20.0,29.32,NW,306,0.0,2.7,26,0.00,,SCT100,0.00,VWS V14.00,2013-04-17 00:36:00,
2013-04-16 17:41:00,54.5,20.3,29.32,NNW,338,2.2,4.0,26,0.00,,SCT100,0.00,VWS V14.00,2013-04-17 00:41:00,
2013-04-16 17:47:00,54.7,20.5,29.32,NW,304,5.8,6.3,26,0.00,,SCT100,0.00,VWS V14.00,2013-04-17 00:47:00,
2013-04-16 17:52:00,54.7,20.5,29.32,NNW,330,2.7,4.9,26,0.00,,SCT100,0.00,VWS V14.00,2013-04-17 00:52:00,
2013-04-16 17:58:00,54.5,20.3,29.32,NW,319,0.0,2.7,26,0.00,,SCT100,0.00,VWS V14.00,2013-04-17 00:58:00,
2013-04-16 18:03:00,54.3,20.2,29.32,SSE,167,2.2,3.6,26,0.00,,CLR,0.00,VWS V14.00,2013-04-17 01:03:00,
2013-04-16 18:08:00,54.1,20.0,29.32,NNW,338,2.7,3.1,26,0.00,,CLR,0.00,VWS V14.00,2013-04-17 01:08:00,
2013-04-16 18:13:00,54.1,20.0,29.32,North,353,0.0,2.2,26,0.00,,CLR,0.00,VWS V14.00,2013-04-17 01:13:00,
2013-04-16 18:18:00,54.1,20.0,29.32,WNW,289,3.6,3.6,26,0.00,,CLR,0.00,VWS V14.00,2013-04-17 01:18:00,
2013-04-16 18:24:00,54.1,20.0,29.32,WSW,254,2.2,2.2,26,0.00,,CLR,0.00,VWS V14.00,2013-04-17 01:24:00,
2013-04-16 18:29:00,54.3,20.2,29.32,North,7,0.0,2.7,26,0.00,,CLR,0.00,VWS V14.00,2013-04-17 01:29:00,
2013-04-16 18:34:00,54.3,20.2,29.32,NNW,336,2.7,3.6,26,0.00,,CLR,0.00,VWS V14.00,2013-04-17 01:34:00,
2013-04-16 18:40:00,54.3,20.2,29.32,NW,325,2.7,6.3,26,0.00,,CLR,0.00,VWS V14.00,2013-04-17 01:40:00,
2013-04-16 18:46:00,54.5,20.3,29.32,NE,47,0.0,2.7,26,0.00,,CLR,0.00,VWS V14.00,2013-04-17 01:46:00,
2013-04-16 18:52:00,54.7,20.5,29.32,North,357,0.0,0.0,26,0.00,,CLR,0.00,VWS V14.00,2013-04-17 01:52:00,
2013-04-16 18:57:00,54.5,20.3,29.32,NNW,343,0.0,0.0,26,0.00,,CLR,0.00,VWS V14.00,2013-04-17 01:57:00,
2013-04-16 19:02:00,53.8,19.7,29.32,North,357,0.0,2.2,26,0.00,,CLR,0.00,VWS V14.00,2013-04-17 02:02:00,
2013-04-16 19:08:00,53.2,19.3,29.32,WSW,256,0.0,2.7,26,0.00,,CLR,0.00,VWS V14.00,2013-04-17 02:08:00,
2013-04-16 19:14:00,52.3,18.5,29.32,NE,52,0.0,0.0,26,0.00,,CLR,0.00,VWS V14.00,2013-04-17 02:14:00,
2013-04-16 19:20:00,51.6,17.9,29.32,NE,51,0.0,0.0,26,0.00,,CLR,0.00,VWS V14.00,2013-04-17 02:20:00,
2013-04-16 19:26:00,51.1,17.4,29.32,NNW,335,0.0,0.0,26,0.00,,CLR,0.00,VWS V14.00,2013-04-17 02:26:00,
2013-04-16 19:32:00,50.5,17.0,29.32,NNW,335,0.0,0.0,26,0.00,,CLR,0.00,VWS V14.00,2013-04-17 02:32:00,
2013-04-16 19:37:00,50.0,17.4,29.32,NNW,335,0.0,0.0,27,0.00,,CLR,0.00,VWS V14.00,2013-04-17 02:37:00,
2013-04-16 19:43:00,49.5,16.9,29.32,NNW,335,0.0,0.0,27,0.00,,CLR,0.00,VWS V14.00,2013-04-17 02:43:00,
2013-04-16 19:49:00,48.7,16.3,29.32,NNW,335,0.0,0.0,27,0.00,,CLR,0.00,VWS V14.00,2013-04-17 02:49:00,
2013-04-16 19:54:00,48.2,16.6,29.32,NNW,335,0.0,0.0,28,0.00,,CLR,0.00,VWS V14.00,2013-04-17 02:54:00,
2013-04-16 20:00:00,47.3,16.7,29.32,NNW,335,0.0,0.0,29,0.00,,CLR,0.00,VWS V14.00,2013-04-17 03:00:00,
2013-04-16 20:05:00,46.8,16.2,29.32,NNW,335,0.0,0.0,29,0.00,,CLR,0.00,VWS V14.00,2013-04-17 03:05:00,
2013-04-16 20:11:00,46.2,16.5,29.32,NNW,335,0.0,0.0,30,0.00,,CLR,0.00,VWS V14.00,2013-04-17 03:11:00,
2013-04-16 20:17:00,45.3,16.5,29.32,NNW,335,0.0,0.0,31,0.00,,CLR,0.00,VWS V14.00,2013-04-17 03:17:00,
2013-04-16 20:22:00,45.0,16.2,29.32,NNW,335,0.0,0.0,31,0.00,,CLR,0.00,VWS V14.00,2013-04-17 03:22:00,
2013-04-16 20:28:00,44.6,16.6,29.32,NNW,335,0.0,0.0,32,0.00,,CLR,0.00,VWS V14.00,2013-04-17 03:28:00,
2013-04-16 20:33:00,44.1,16.8,29.32,NNW,335,0.0,0.0,33,0.00,,CLR,0.00,VWS V14.00,2013-04-17 03:33:00,
2013-04-16 20:38:00,43.5,17.0,29.32,NNW,335,0.0,0.0,34,0.00,,CLR,0.00,VWS V14.00,2013-04-17 03:38:00,
2013-04-16 20:44:00,43.0,17.2,29.32,NNW,335,0.0,0.0,35,0.00,,CLR,0.00,VWS V14.00,2013-04-17 03:44:00,
2013-04-16 20:49:00,42.6,18.2,29.32,NNW,335,0.0,0.0,37,0.00,,CLR,0.00,VWS V14.00,2013-04-17 03:49:00,
2013-04-16 20:54:00,42.1,18.3,29.32,NNW,335,0.0,0.0,38,0.00,,CLR,0.00,VWS V14.00,2013-04-17 03:54:00,
2013-04-16 21:00:00,41.7,18.0,29.32,NNW,335,0.0,0.0,38,0.00,,CLR,0.00,VWS V14.00,2013-04-17 04:00:00,
2013-04-16 21:01:00,41.5,17.8,29.32,NNW,335,0.0,0.0,38,0.00,,CLR,0.00,VWS V14.00,2013-04-17 04:01:00,
2013-04-16 21:07:00,41.2,18.1,29.32,NNW,335,0.0,0.0,39,0.00,,CLR,0.00,VWS V14.00,2013-04-17 04:07:00,
2013-04-16 21:08:00,41.0,18.0,29.32,NNW,335,0.0,0.0,39,0.00,,CLR,0.00,VWS V14.00,2013-04-17 04:08:00,
2013-04-16 21:14:00,40.6,18.2,29.32,NNW,335,0.0,0.0,40,0.00,,CLR,0.00,VWS V14.00,2013-04-17 04:14:00,
2013-04-16 21:19:00,40.5,18.1,29.32,NNW,335,0.0,0.0,40,0.00,,CLR,0.00,VWS V14.00,2013-04-17 04:19:00,
2013-04-16 21:25:00,40.1,17.7,29.32,NNW,335,0.0,0.0,40,0.00,,CLR,0.00,VWS V14.00,2013-04-17 04:25:00,
2013-04-16 21:31:00,40.1,18.3,29.32,NNW,335,0.0,0.0,41,0.00,,CLR,0.00,VWS V14.00,2013-04-17 04:31:00,
2013-04-16 21:36:00,39.9,18.1,29.32,NNW,335,0.0,0.0,41,0.00,,CLR,0.00,VWS V14.00,2013-04-17 04:36:00,
2013-04-16 21:42:00,40.1,18.9,29.32,North,353,0.0,0.0,42,0.00,,CLR,0.00,VWS V14.00,2013-04-17 04:42:00,
2013-04-16 21:47:00,40.5,19.2,29.32,NE,43,0.0,2.7,42,0.00,,CLR,0.00,VWS V14.00,2013-04-17 04:47:00,
2013-04-16 21:52:00,40.8,19.5,29.32,NE,43,0.0,0.0,42,0.00,,CLR,0.00,VWS V14.00,2013-04-17 04:52:00,
2013-04-16 21:57:00,40.8,19.5,29.32,NE,43,0.0,0.0,42,0.00,,CLR,0.00,VWS V14.00,2013-04-17 04:57:00,
2013-04-16 22:03:00,40.6,19.4,29.32,NE,43,0.0,0.0,42,0.00,,CLR,0.00,VWS V14.00,2013-04-17 05:03:00,
2013-04-16 22:08:00,40.6,19.4,29.32,NE,43,0.0,0.0,42,0.00,,CLR,0.00,VWS V14.00,2013-04-17 05:08:00,
2013-04-16 22:14:00,40.5,19.2,29.32,NE,43,0.0,0.0,42,0.00,,CLR,0.00,VWS V14.00,2013-04-17 05:14:00,
2013-04-16 22:20:00,40.1,18.9,29.32,NE,43,0.0,0.0,42,0.00,,CLR,0.00,VWS V14.00,2013-04-17 05:20:00,
2013-04-16 22:25:00,39.9,18.7,29.32,NE,43,0.0,0.0,42,0.00,,CLR,0.00,VWS V14.00,2013-04-17 05:25:00,
2013-04-16 22:30:00,39.7,19.1,29.32,NNE,31,3.6,3.6,43,0.00,,CLR,0.00,VWS V14.00,2013-04-17 05:30:00,
2013-04-16 22:36:00,40.1,19.4,29.32,SE,133,0.0,2.7,43,0.00,,CLR,0.00,VWS V14.00,2013-04-17 05:36:00,
2013-04-16 22:41:00,40.3,19.6,29.32,East,99,0.0,0.0,43,0.00,,CLR,0.00,VWS V14.00,2013-04-17 05:41:00,
2013-04-16 22:46:00,40.1,19.4,29.32,East,99,0.0,0.0,43,0.00,,CLR,0.00,VWS V14.00,2013-04-17 05:46:00,
2013-04-16 22:52:00,39.9,19.2,29.32,East,99,0.0,0.0,43,0.00,,CLR,0.00,VWS V14.00,2013-04-17 05:52:00,
2013-04-16 22:57:00,39.6,18.9,29.32,East,99,0.0,0.0,43,0.00,,CLR,0.00,VWS V14.00,2013-04-17 05:57:00,
2013-04-16 23:03:00,39.2,18.6,29.32,ESE,106,0.0,0.0,43,0.00,,CLR,0.00,VWS V14.00,2013-04-17 06:03:00,
2013-04-16 23:09:00,39.0,19.0,29.32,ENE,59,0.0,0.0,44,0.00,,CLR,0.00,VWS V14.00,2013-04-17 06:09:00,
2013-04-16 23:14:00,38.8,18.8,29.32,ENE,59,0.0,0.0,44,0.00,,CLR,0.00,VWS V14.00,2013-04-17 06:14:00,
2013-04-16 23:20:00,38.7,18.6,29.32,ENE,59,0.0,0.0,44,0.00,,CLR,0.00,VWS V14.00,2013-04-17 06:20:00,
2013-04-16 23:25:00,38.7,19.2,29.32,ENE,59,0.0,0.0,45,0.00,,CLR,0.00,VWS V14.00,2013-04-17 06:25:00,
2013-04-16 23:31:00,38.3,18.8,29.32,ENE,59,0.0,0.0,45,0.00,,CLR,0.00,VWS V14.00,2013-04-17 06:31:00,
2013-04-16 23:37:00,37.9,18.5,29.32,ENE,59,0.0,0.0,45,0.00,,CLR,0.00,VWS V14.00,2013-04-17 06:37:00,
2013-04-16 23:42:00,37.4,18.0,29.32,ENE,59,0.0,0.0,45,0.00,,CLR,0.00,VWS V14.00,2013-04-17 06:42:00,
2013-04-16 23:48:00,37.2,17.9,29.32,ENE,59,0.0,0.0,45,0.00,,CLR,0.00,VWS V14.00,2013-04-17 06:48:00,
2013-04-16 23:53:00,36.9,18.0,29.32,ENE,59,0.0,0.0,46,0.00,,CLR,0.00,VWS V14.00,2013-04-17 06:53:00,
2013-04-16 23:59:00,36.9,18.0,29.32,ENE,59,0.0,0.0,46,0.00,,CLR,0.00,VWS V14.00,2013-04-17 06:59:00,